OneWeb SL0692

operational
NORAD ID: 61600 Int'l Des: 2024-188 Owner: ONEWEBE Country: UK Constellation: oneweb
LEOCIRCULARPOLARONEWEB_TYPE

OneWeb SL0692について

説明を読み込み中...

リアルタイム位置

3D地球を読み込み中...

次回通過

高度履歴

Altitude vs Time

uPlot chart will show altitude changes over time

軌道要素

1 61600U 24188G 25298.90882737 .00000128 00000-0 32447-3 0 9990
2 61600 87.8828 67.7520 0002536 98.2749 261.8667 13.11413877 53761
Epoch: Oct 25, 2025 • Age: 10 hours

現在のステータス

高度 1236.8 km
速度 7.23 km/s
衛星直下点 -46.30°S, 93.17°E
打ち上げ日 Oct 20, 2024
運用期間 1 years
タイプ internet

技術仕様

分類 Payload
質量 148.00 kg
乾燥質量 140.00 kg
総質量 148.00 kg
長さ 1.30 m
直径 1.00 m
スパン 5.00 m
形状 Trapezoid+2 pan
製造者 ONEWUS
バスタイプ ARROW
フェーズステータス In Orbit
所有者/国 ONEWEBE/UK

大規模コンステレーション

Loading constellations...